Starlink 5176

operational
NORAD ID: 54053 Int'l Des: 2022-136 Owner: SPXS Country: US Constellation: starlink
LEOCIRCULAR

Über Starlink 5176

Beschreibung wird geladen...

Live-Position

3D-Globus wird geladen...

Nächste Überflüge

Höhenverlauf

Altitude vs Time

uPlot chart will show altitude changes over time

Zweizeiliger Elementsatz

1 54053U 22136C 25352.29784576 -.00001504 00000-0 -76432-4 0 9994
2 54053 53.2190 349.7094 0001280 88.7821 271.3318 15.08832629174551
Epoch: 18. Dez. 2025 • Age: 16 hours

Aktueller Status

Höhe 554.8 km
Geschwindigkeit 7.58 km/s
Subsatellitenpunkt -42.55°S, 125.95°W
Startdatum 20. Okt. 2022
Alter 3.1 years
Typ internet

Technische Details

Klassifizierung Payload
Masse 305.00 kg
Trockenmasse 290.00 kg
Gesamtmasse 305.00 kg
Länge 0.20 m
Durchmesser 2.80 m
Spannweite 9.00 m
Form Box + pan
Hersteller SPXS
Bus-Typ Starlink
Phasenstatus In Orbit
Besitzer/Staat SPXS/US

Große Konstellationen

Loading constellations...